{"data":{"norad_id":64711,"intl_designator":"2025-142R","name":"STARLINK-34312","alt_names":[],"object_type":"PAYLOAD","status":"ACTIVE","operator":null,"country":"US","launch_date":"2025-06-28","launch_site_code":"AFWTR","launch_vehicle":null,"mission":null,"orbit_class":"UNKNOWN","rcs_meters":null,"size_class":null,"mass_kg":null,"dimensions":null,"purposes":["comms"],"wikipedia_slug":null,"has_3d_model":false,"image_url":null,"decayed_at":null,"tle_current":{"epoch":"2026-09-20T04:14:51.487584Z","epoch_age_seconds":155904,"freshness":"FRESH","line1":"1 64711U 25142R   26263.17698481  .00009877  00000+0  34745-3 0  9992","line2":"2 64711  70.0012 181.6672 0003487 266.4753  93.6023 15.29591762 68843","mean_motion":15.29591762,"eccentricity":0.0003487,"inclination_deg":70.0012,"raan_deg":181.6672,"arg_perigee_deg":266.4753,"mean_anomaly_deg":93.6023,"bstar":0.00034745,"rev_number":6884,"period_min":94.142766440971,"perigee_km":474.6413628808,"apogee_km":479.42215757418,"semimajor_km":6855.1687602275,"source":"CELESTRAK","updated_at":"2026-09-21T09:00:35.406021Z"}}}